CZ-6A DEB

Satellite information

Favourite Embed

Satellite Type and Status

DEBRISIN ORBIT

Key statistics

Satellite CZ-6A DEB at a glance.

Uptime

1129

Days in orbit

Revolutions

≈ 14.7

Per day

Orbit

SSO

Sun Synchronous Orbit

Inclination

98.6

Latest

Satellite identification and parameters

Extended collection of information and parameters for CZ-6A DEB.

Object identification

Identified? True

Debris? True

Object name: CZ-6A DEB

International designator: 2022-151BE

Object number (NORAD): 54311

Object ID (CCSDS): 54311

Country: PEOPLES REPUBLIC OF CHINA (PRC)

Current information (Y/N): Y

RCS size: SMALL

Orbital parameters

Period: 97.647 minutes

Inclination: 98.6316 deg

SMA: 7024.231 km

Apoapsis: 694.604 km

Periapsis: 597.588 km

RAAN: 43.2795 deg

Eccentricy: 0.00690575

Argument of periapsis: 121.3858 deg

Mean anomaly: 239.4129 deg

Mean motion: 14.74703084 rev/day

Mean motion (dot): 0.00027306 rev/day2

B* drag term: 0.0039274681 1/REarth

Two-line elements (TLE)

Creation date: Dec. 12, 2025, 10:14 a.m.

Reference frame: TEME

Reference center: EARTH

Epoch: Dec. 12, 2025, 2:55 a.m. UTC

TLE line 0: 0 CZ-6A DEB

TLE line 1: 1 54311U 22151BE 25346.12163416 .00027306 00000-0 39275-2 0 9995

TLE line 2: 2 54311 98.6316 43.2795 0069058 121.3858 239.4129 14.74703084162844

Live tracking on map

Real-time ground track for satellite CZ-6A DEB.

In-orbit conjunctions

A list of the most updated potential collisions computed for object CZ-6A DEB.

Target Orbit TCA Probability of collision Miss distance Type
SL-14 R/B LEO 2025-11-05 13:48:59 0.0001152197 341.0 (m) ROCKET BODY
NOAA 16 DEB SSO 2024-11-13 22:49:52 0.000370929 308.0 (m) DEBRIS

Associated space launch

Chinese satellite reported for atmospheric/ocean/environmental/spatial parameter research purposes, details TBD.

CZ-6A DEB was lifted into orbit during the mission ‘Long March 6A | Yunhai 3’, on board a Long March 6A space rocket.

The launch took place on Nov. 11, 2022, 10:52 p.m. from Launch Complex 9A.

For more information about the launch, click the button.

Launch to space Long March 6A | Yunhai 3
Long March 6A | Yunhai 3

Agency: N/A

Status: Launch Successful

Launch date: Nov. 11, 2022, 10:52 p.m. UTC

Rocket: Long March 6A

Launch pad: Launch Complex 9A

Location: Taiyuan Satellite Launch Center, People's Republic of China

...

Latest news about this satellite

There are no fresh news available about this satellite. Check back as we update our databases every day.


Newsletter sign-up

Weekly statistics, charts and insights to help you stay on top of the space industry.